Rochester, NH

7:40 PM EST on January 18, 2018 (GMT -0500)
Skyhaven

Weather History for KDAW - September, 2013

Change the Weather History Date:

Monday, September 23, 2013

  Actual Average (KPSM) Record (KPSM)
Temperature  
Mean Temperature 52 °F -  
Max Temperature 60 °F 67 °F 85 °F (1980)
Min Temperature 44 °F 49 °F 34 °F (1977)
Degree Days  
Heating Degree Days 14    
Growing Degree Days 2 (Base 50)    
Moisture  
Dew Point 39 °F    
Average Humidity 63    
Maximum Humidity 79    
Minimum Humidity 49    
Precipitation  
Precipitation 0.00 in - - ()
Sea Level Pressure  
Sea Level Pressure 29.89 in    
Wind  
Wind Speed 9 mph (WNW)    
Max Wind Speed 22 mph    
Max Gust Speed 30 mph    
Visibility 10 miles    
Events      
Averages and records for this station are not official NWS values.
T = Trace of Precipitation, MM = Missing Value Source: NWS Daily Summary

Daily Weather History Graph

Daily Weather History Graph

Search for Another Location

Airport or City:

Trip Planner

Search our weather history database for the weather conditions in past years. The results will help you decide how hot, cold, wet, or windy it might be!

Date:

Astronomy

Sep. 23, 2013 Rise Set
Actual Time 6:32 AM EDT 6:38 PM EDT
Civil Twilight 6:03 AM EDT 7:07 PM EDT
Nautical Twilight 5:30 AM EDT 7:40 PM EDT
Astronomical Twilight 4:56 AM EDT 8:14 PM EDT
Moon 9:00 PM EDT (9/23) 10:56 AM EDT (9/23)
Length of Visible Light 13h 03m
Length of Day
12h 06m
Waning Gibbous, 81% of the Moon is Illuminated
Sep 23
Waning Gibbous
Sep 26
Last Quarter
Oct 4
New
Oct 11
First Quarter
Oct 18
Full

Hourly Weather History & Observations

Time (EDT) Temp. Windchill Dew Point Humidity Pressure Visibility Wind Dir Wind Speed Gust Speed Precip Events Conditions
12:51 AM 50.0 °F - 39.9 °F 68% 29.80 in 10.0 mi WSW 5.8 mph - N/A   Clear
1:51 AM 48.9 °F - 39.9 °F 71% 29.81 in 10.0 mi Variable 3.5 mph - N/A   Clear
2:51 AM 48.9 °F - 39.0 °F 69% 29.80 in 10.0 mi WNW 10.4 mph - N/A   Clear
3:51 AM 48.9 °F - 39.0 °F 69% 29.81 in 10.0 mi WNW 8.1 mph - N/A   Clear
4:51 AM 48.0 °F - 37.9 °F 68% 29.82 in 10.0 mi Variable 5.8 mph - N/A   Clear
5:51 AM 46.0 °F 43.9 °F 37.9 °F 73% 29.83 in 10.0 mi West 4.6 mph - N/A   Clear
6:51 AM 46.9 °F - 37.0 °F 68% 29.86 in 10.0 mi West 3.5 mph - N/A   Clear
7:51 AM 50.0 °F - 37.0 °F 61% 29.87 in 10.0 mi NW 8.1 mph - N/A   Clear
8:51 AM 52.0 °F - 37.9 °F 59% 29.87 in 10.0 mi NW 16.1 mph 24.2 mph N/A   Clear
9:51 AM 54.0 °F - 37.9 °F 55% 29.88 in 10.0 mi WNW 11.5 mph 20.7 mph N/A   Clear
10:51 AM 55.9 °F - 39.0 °F 53% 29.88 in 10.0 mi NNW 21.9 mph 29.9 mph N/A   Clear
11:51 AM 57.0 °F - 39.0 °F 51% 29.88 in 10.0 mi NW 18.4 mph 25.3 mph N/A   Clear
12:51 PM 57.9 °F - 39.9 °F 51% 29.89 in 10.0 mi NW 10.4 mph 16.1 mph N/A   Partly Cloudy
1:51 PM 59.0 °F - 39.9 °F 49% 29.88 in 10.0 mi NW 16.1 mph 21.9 mph N/A   Clear
2:51 PM 59.0 °F - 39.9 °F 49% 29.89 in 10.0 mi NW 13.8 mph - N/A   Clear
3:51 PM 59.0 °F - 39.9 °F 49% 29.89 in 10.0 mi NNW 16.1 mph 20.7 mph N/A   Clear
4:51 PM 57.0 °F - 39.0 °F 51% 29.90 in 10.0 mi NW 16.1 mph - N/A   Clear
5:51 PM 53.1 °F - 39.0 °F 59% 29.93 in 10.0 mi NW 15.0 mph 23.0 mph N/A   Clear
6:51 PM 51.1 °F - 37.9 °F 61% 29.94 in 10.0 mi WNW 12.7 mph - N/A   Clear
7:51 PM 48.9 °F - 37.9 °F 66% 29.96 in 10.0 mi NW 8.1 mph - N/A   Clear
8:51 PM 46.0 °F - 39.0 °F 76% 29.97 in 10.0 mi Calm Calm - N/A   Clear
9:51 PM 46.0 °F 44.8 °F 37.9 °F 73% 29.97 in 10.0 mi Variable 3.5 mph - N/A   Clear
10:51 PM 44.1 °F 40.8 °F 37.9 °F 79% 29.96 in 10.0 mi WNW 5.8 mph - N/A   Clear
11:51 PM 45.0 °F 42.6 °F 37.9 °F 76% 29.96 in 10.0 mi West 4.6 mph - N/A   Clear